Location: Nelson
(41.2830°S, 173.2830°E)
Time: 14:13:03
(UTC+13:00)

ISS - Pass Details

Date: 02 February 2019
Orbit: 403 x 411 km, 51.6° (Epoch: 17 February)

Event Time Altitude Azimuth Distance (km) Brightness Sun altitude
Exits shadow 04:31:08 79° 11° (N) 429 -3.9 -19.6°
Maximum altitude 04:31:13 80° 37° (NE) 428 -3.9 -19.5°
Drops below altitude 10° 04:34:35 10° 124° (SE) 1,499 0.2 -19.1°
Sets 04:36:42 0° 125° (SE) 2,365 1.6 -18.8°
